When you browse on this site, cookies collect data to enhance your experience and personalize the content and advertising you see.
Visit our Privacy Policy to learn more. By continuing to use the site, you agree to this use of cookies and data.
  • In Romania
  • List of Countries
  • For 7 days
  • Water Temperature
  • Satellite Maps
  • Weather Map
  • Weather Widgets
  • user-avatar
    Login

    Hourly Weather Elbasan

    Today, 16 February, Saturday

    Time Temperature Precipitation Wind Pressure Humidity
    00:00 +2°C° 0 mm 2 mps 743 mmHg 68%
    01:00 +2°C° 0 mm 2 mps 743 mmHg 69%
    02:00 +2°C° 0 mm 2 mps 743 mmHg 68%
    03:00 +2°C° 0 mm 2 mps 743 mmHg 67%
    04:00 +1°C° 0 mm 3 mps 743 mmHg 67%
    05:00 +1°C° 0 mm 3 mps 743 mmHg 66%
    06:00 +1°C° 0 mm 3 mps 743 mmHg 66%
    07:00 +1°C° 0 mm 3 mps 743 mmHg 65%
    08:00 +3°C° 0 mm 3 mps 743 mmHg 59%
    09:00 +5°C° 0 mm 3 mps 744 mmHg 52%
    10:00 +8°C° 0 mm 3 mps 744 mmHg 45%
    11:00 +9°C° 0 mm 2 mps 744 mmHg 42%
    12:00 +10°C° 0 mm 2 mps 744 mmHg 40%
    13:00 +12°C° 0 mm 2 mps 743 mmHg 37%
    14:00 +12°C° 0 mm 2 mps 743 mmHg 40%
    15:00 +12°C° 0 mm 1 mps 743 mmHg 42%
    16:00 +12°C° 0 mm 1 mps 743 mmHg 44%
    17:00 +10°C° 0 mm 1 mps 743 mmHg 48%
    18:00 +8°C° 0 mm 2 mps 743 mmHg 53%
    19:00 +6°C° 0 mm 2 mps 743 mmHg 57%
    20:00 +6°C° 0 mm 2 mps 743 mmHg 58%
    21:00 +5°C° 0 mm 2 mps 743 mmHg 59%
    22:00 +5°C° 0 mm 2 mps 744 mmHg 59%
    23:00 +5°C° 0 mm 2 mps 744 mmHg 59%

    Tomorrow, 17 February, Sunday

    Time Temperature Precipitation Wind Pressure Humidity
    00:00 +4°C° 0 mm 2 mps 744 mmHg 58%
    01:00 +4°C° 0 mm 2 mps 744 mmHg 58%
    02:00 +4°C° 0 mm 2 mps 743 mmHg 57%
    03:00 +4°C° 0 mm 2 mps 743 mmHg 55%
    04:00 +4°C° 0 mm 2 mps 743 mmHg 54%
    05:00 +4°C° 0 mm 2 mps 743 mmHg 53%
    06:00 +4°C° 0 mm 2 mps 743 mmHg 51%
    07:00 +4°C° 0 mm 2 mps 743 mmHg 50%
    08:00 +7°C° 0 mm 1 mps 743 mmHg 44%
    09:00 +10°C° 0 mm 1 mps 743 mmHg 39%
    10:00 +12°C° 0 mm 1 mps 743 mmHg 33%
    11:00 +13°C° 0 mm 1 mps 743 mmHg 33%
    12:00 +14°C° 0 mm 1 mps 743 mmHg 32%
    13:00 +15°C° 0 mm 1 mps 742 mmHg 32%
    14:00 +14°C° 0 mm 1 mps 742 mmHg 36%
    15:00 +14°C° 0 mm 1 mps 742 mmHg 41%
    16:00 +13°C° 0 mm 1 mps 741 mmHg 46%
    17:00 +11°C° 0 mm 1 mps 742 mmHg 51%
    18:00 +10°C° 0 mm 1 mps 742 mmHg 57%
    19:00 +7°C° 0 mm 0 mps 742 mmHg 62%
    20:00 +7°C° 0 mm 0 mps 742 mmHg 62%
    21:00 +8°C° 0 mm 1 mps 742 mmHg 62%
    22:00 +8°C° 0 mm 1 mps 742 mmHg 62%
    23:00 +8°C° 0 mm 1 mps 742 mmHg 61%

    Day after tomorrow, 18 February, Monday

    Time Temperature Precipitation Wind Pressure Humidity
    00:00 +7°C° 0 mm 1 mps 742 mmHg 61%
    01:00 +7°C° 0 mm 1 mps 742 mmHg 60%
    02:00 +7°C° 0 mm 1 mps 741 mmHg 59%
    03:00 +7°C° 0 mm 1 mps 741 mmHg 59%
    04:00 +7°C° 0 mm 1 mps 741 mmHg 58%
    05:00 +7°C° 0 mm 1 mps 741 mmHg 58%
    06:00 +7°C° 0 mm 1 mps 741 mmHg 57%
    07:00 +7°C° 0 mm 1 mps 741 mmHg 57%
    08:00 +9°C° 0 mm 1 mps 741 mmHg 52%
    09:00 +10°C° 0 mm 0 mps 741 mmHg 47%
    10:00 +12°C° 0 mm 0 mps 741 mmHg 42%
    11:00 +14°C° 0 mm 1 mps 741 mmHg 41%
    12:00 +15°C° 0 mm 1 mps 741 mmHg 41%
    13:00 +15°C° 0 mm 2 mps 740 mmHg 40%
    14:00 +15°C° 0 mm 2 mps 740 mmHg 44%
    15:00 +14°C° 0 mm 2 mps 740 mmHg 48%
    16:00 +14°C° 0 mm 2 mps 740 mmHg 52%
    17:00 +12°C° 0 mm 1 mps 740 mmHg 59%
    18:00 +11°C° 0 mm 1 mps 740 mmHg 66%
    19:00 +8°C° 0 mm 0 mps 740 mmHg 73%
    20:00 +8°C° 0 mm 0 mps 740 mmHg 73%
    21:00 +8°C° 0 mm 0 mps 740 mmHg 73%
    22:00 +7°C° 0 mm 0 mps 741 mmHg 73%
    23:00 +7°C° 0 mm 0 mps 741 mmHg 73%

    19 February, Tuesday

    Time Temperature Precipitation Wind Pressure Humidity
    00:00 +7°C° 0 mm 0 mps 741 mmHg 73%
    01:00 +8°C° 0 mm 1 mps 741 mmHg 73%
    02:00 +7°C° 0 mm 1 mps 740 mmHg 73%
    03:00 +7°C° 0 mm 1 mps 740 mmHg 73%
    04:00 +7°C° 0 mm 1 mps 740 mmHg 73%
    05:00 +7°C° 0 mm 1 mps 740 mmHg 73%
    06:00 +7°C° 0 mm 1 mps 740 mmHg 72%
    07:00 +7°C° 0 mm 1 mps 740 mmHg 72%
    08:00 +9°C° 0 mm 1 mps 741 mmHg 64%
    09:00 +11°C° 0 mm 1 mps 741 mmHg 57%
    10:00 +13°C° 0 mm 1 mps 741 mmHg 49%
    11:00 +13°C° 0 mm 1 mps 741 mmHg 47%
    12:00 +14°C° 0 mm 2 mps 741 mmHg 44%
    13:00 +15°C° 0 mm 2 mps 740 mmHg 42%
    14:00 +14°C° 0 mm 2 mps 740 mmHg 46%
    15:00 +14°C° 0 mm 2 mps 740 mmHg 49%
    16:00 +13°C° 0 mm 2 mps 740 mmHg 53%
    17:00 +12°C° 0 mm 1 mps 740 mmHg 62%
    18:00 +10°C° 0 mm 1 mps 740 mmHg 70%
    19:00 +8°C° 0 mm 0 mps 740 mmHg 79%
    20:00 +7°C° 0 mm 0 mps 740 mmHg 80%
    21:00 +7°C° 0 mm 0 mps 741 mmHg 81%
    22:00 +7°C° 0 mm 0 mps 741 mmHg 82%
    23:00 +7°C° 0 mm 0 mps 741 mmHg 82%

    20 February, Wednesday

    Time Temperature Precipitation Wind Pressure Humidity
    00:00 +6°C° 0 mm 0 mps 741 mmHg 82%
    01:00 +6°C° 0 mm 0 mps 741 mmHg 82%
    02:00 +6°C° 0 mm 0 mps 741 mmHg 81%
    03:00 +6°C° 0 mm 1 mps 741 mmHg 80%
    04:00 +6°C° 0 mm 1 mps 741 mmHg 79%
    05:00 +6°C° 0 mm 1 mps 741 mmHg 77%
    06:00 +6°C° 0 mm 1 mps 741 mmHg 75%
    07:00 +6°C° 0 mm 1 mps 741 mmHg 73%
    08:00 +8°C° 0 mm 1 mps 741 mmHg 65%
    09:00 +10°C° 0 mm 1 mps 741 mmHg 57%
    10:00 +12°C° 0 mm 1 mps 742 mmHg 50%
    11:00 +13°C° 0 mm 1 mps 741 mmHg 49%
    12:00 +14°C° 0 mm 2 mps 741 mmHg 48%
    13:00 +14°C° 0 mm 2 mps 741 mmHg 47%
    14:00 +14°C° 0 mm 2 mps 741 mmHg 51%
    15:00 +14°C° 0 mm 2 mps 741 mmHg 55%
    16:00 +13°C° 0 mm 2 mps 741 mmHg 59%
    17:00 +12°C° 0 mm 1 mps 741 mmHg 67%
    18:00 +10°C° 0 mm 1 mps 741 mmHg 75%
    19:00 +8°C° 0 mm 0 mps 741 mmHg 83%
    20:00 +8°C° 0 mm 0 mps 741 mmHg 83%
    21:00 +7°C° 0 mm 0 mps 742 mmHg 84%
    22:00 +7°C° 0 mm 0 mps 742 mmHg 84%
    23:00 +7°C° 0 mm 0 mps 742 mmHg 83%

    21 February, Thursday

    Time Temperature Precipitation Wind Pressure Humidity
    00:00 +6°C° 0 mm 0 mps 742 mmHg 83%
    01:00 +6°C° 0 mm 0 mps 742 mmHg 82%
    02:00 +6°C° 0 mm 0 mps 742 mmHg 81%
    03:00 +6°C° 0 mm 0 mps 742 mmHg 80%
    04:00 +5°C° 0 mm 0 mps 742 mmHg 79%
    05:00 +6°C° 0 mm 1 mps 742 mmHg 76%
    06:00 +7°C° 0 mm 1 mps 742 mmHg 74%
    07:00 +7°C° 0 mm 1 mps 742 mmHg 71%
    08:00 +9°C° 0 mm 1 mps 742 mmHg 63%
    09:00 +10°C° 0 mm 0 mps 742 mmHg 55%
    10:00 +12°C° 0 mm 0 mps 742 mmHg 47%
    11:00 +14°C° 0 mm 1 mps 742 mmHg 46%
    12:00 +15°C° 0 mm 1 mps 742 mmHg 44%
    13:00 +15°C° 0 mm 2 mps 742 mmHg 43%
    14:00 +15°C° 0 mm 2 mps 741 mmHg 49%
    15:00 +14°C° 0 mm 2 mps 741 mmHg 54%
    16:00 +14°C° 0 mm 2 mps 741 mmHg 60%
    17:00 +12°C° 0 mm 1 mps 741 mmHg 70%
    18:00 +11°C° 0 mm 1 mps 741 mmHg 79%
    19:00 +8°C° 0 mm 0 mps 741 mmHg 89%
    20:00 +8°C° 0 mm 0 mps 742 mmHg 89%
    21:00 +8°C° 0 mm 0 mps 742 mmHg 89%
    22:00 +7°C° 0 mm 0 mps 742 mmHg 89%
    23:00 +7°C° 0 mm 0 mps 742 mmHg 88%
    Show more